SALIDA Weather Reports


time (UTC)temp
C
wind
direction
speed
KPH
gust
KPH
rain 1hr
cm
rain 24hr
cm
rain mn
cm
humidity
%
barometer
mb
20260505080126 7 310 1.6 3.2 0.00 0.00 0.00 65 1000.9
20260505074626 7 310 0.0 3.2 0.00 0.00 0.00 65 1001.0
20260505073126 7 310 1.6 3.2 0.00 0.00 0.00 65 1000.9
20260505071626 7 310 0.0 3.2 0.00 0.00 0.00 64 1000.8
20260505070126 7 310 0.0 1.6 0.00 0.00 0.00 63 1001.2
20260505064626 7 310 0.0 3.2 0.00 0.00 0.00 62 1001.0
20260505063126 7 310 1.6 4.8 0.00 0.00 0.00 61 1001.0
20260505061626 8 263 1.6 4.8 0.00 0.00 0.00 60 1000.7
20260505060126 8 263 1.6 4.8 0.00 0.00 0.00 59 1000.8
20260505054626 8 359 0.0 4.8 0.00 0.00 0.00 58 1000.7
20260505053126 8 317 1.6 6.4 0.00 0.00 0.00 57 1000.7
20260505051626 8 352 0.0 1.6 0.00 0.00 0.00 57 1000.7
20260505050126 8 352 0.0 3.2 0.00 0.00 0.00 56 1000.8
20260505041735 10 329 0.0 1.6 0.00 0.00 0.00 52 1000.7
20260505041626 10 329 0.0 1.6 0.00 0.00 0.00 52 1000.7
20260505040126 10 329 0.0 1.6 0.00 0.00 0.00 51 1000.7
20260505034626 10 329 1.6 6.4 0.00 0.00 0.00 50 1000.5
20260505033126 10 350 3.2 3.2 0.00 0.00 0.00 49 1000.2
20260505031626 10 349 0.0 1.6 0.00 0.00 0.00 49 999.8
20260505030126 11 349 1.6 4.8 0.00 0.00 0.00 47 999.4
20260505024702 11 310 1.6 3.2 0.00 0.00 0.00 45 999.3
20260505024626 11 310 1.6 3.2 0.00 0.00 0.00 45 999.3
20260505023126 12 310 3.2 4.8 0.00 0.00 0.00 44 998.8
20260505021626 12 327 3.2 6.4 0.00 0.00 0.00 43 998.8
20260505020126 12 320 3.2 4.8 0.00 0.00 0.00 43 998.5
20260505014626 13 287 4.8 12.9 0.00 0.00 0.00 42 998.2
20260505013126 13 311 4.8 6.4 0.00 0.00 0.00 42 998.3
20260505011626 13 15 3.2 8.0 0.00 0.00 0.00 42 998.3
20260505010126 13 340 6.4 9.7 0.00 0.00 0.00 41 998.3
20260505004627 14 307 6.4 12.9 0.00 0.00 0.00 39 998.3
20260505003127 14 291 6.4 14.5 0.00 0.00 0.00 40 998.2
20260505001627 14 268 9.7 20.9 0.00 0.00 0.00 41 998.3
20260505000127 14 273 11.3 20.9 0.00 0.00 0.00 42 998.5
20260504234627 14 333 11.3 22.5 0.00 0.00 0.00 43 998.8
20260504233127 14 340 11.3 27.4 0.00 0.00 0.00 43 998.7
20260504231627 14 330 14.5 25.7 0.00 0.00 0.00 42 998.5
20260504230127 14 351 17.7 32.2 0.00 0.00 0.00 41 998.4
20260504224627 15 333 14.5 30.6 0.00 0.00 0.00 38 998.0
20260504223127 15 347 6.4 20.9 0.00 0.00 0.00 38 997.9
20260504221627 15 338 8.0 19.3 0.00 0.00 0.00 42 998.2
20260504220127 14 330 11.3 20.9 0.00 0.00 0.00 44 998.3
20260504214627 13 327 16.1 27.4 0.00 0.00 0.00 45 998.8
20260504213127 15 343 16.1 35.4 0.00 0.00 0.00 39 998.9
20260504211627 16 326 11.3 20.9 0.00 0.00 0.00 33 998.6
20260504210127 16 271 12.9 29.0 0.00 0.00 0.00 33 998.6
20260504204627 16 337 6.4 22.5 0.00 0.00 0.00 32 998.8
20260504203127 17 320 6.4 11.3 0.00 0.00 0.00 32 999.0
20260504201627 16 328 8.0 14.5 0.00 0.00 0.00 35 999.2
20260504200127 15 318 11.3 19.3 0.00 0.00 0.00 37 999.4
20260504194627 15 261 9.7 24.1 0.00 0.00 0.00 36 999.5
20260504193127 16 280 3.2 12.9 0.00 0.00 0.00 33 999.3
20260504191627 15 334 6.4 16.1 0.00 0.00 0.00 34 999.5
20260504190127 15 66 6.4 14.5 0.00 0.00 0.00 39 999.7
20260504184627 15 255 6.4 9.7 0.00 0.00 0.00 41 1000.6
20260504183127 15 351 12.9 19.3 0.00 0.00 0.00 42 1001.0
20260504181627 13 326 19.3 29.0 0.00 0.00 0.00 45 1001.4
20260504180127 11 316 24.1 35.4 0.00 0.00 0.00 51 1001.6
20260504174627 14 241 12.9 37.0 0.00 0.00 0.00 40 1001.5
20260504173127 16 302 9.7 22.5 0.00 0.00 0.00 33 1000.6
20260504171627 16 305 8.0 22.5 0.00 0.00 0.00 33 1000.6
20260504170127 17 269 11.3 20.9 0.00 0.00 0.00 32 1001.0
20260504160127 15 7 4.8 9.7 0.00 0.00 0.00 38 1002.0
20260504150127 12 240 6.4 11.3 0.00 0.00 0.00 43 1003.4
20260504140128 11 311 4.8 9.7 0.00 0.00 0.00 49 1004.0
20260504130128 10 349 4.8 8.0 0.00 0.00 0.00 53 1003.7
20260504120128 8 302 4.8 8.0 0.00 0.00 0.00 54 1004.2
20260504110128 8 280 4.8 11.3 0.00 0.00 0.00 49 1004.3
20260504100128 5 323 3.2 12.9 0.00 0.00 0.00 58 1004.5
20260504090128 4 307 0.0 3.2 0.00 0.00 0.00 57 1005.2
20260504081628 4 307 0.0 1.6 0.00 0.00 0.00 56 1005.2